{"data":{"norad_id":67706,"intl_designator":"2026-025P","name":"STARLINK-36707","alt_names":[],"object_type":"PAYLOAD","status":"ACTIVE","operator":null,"country":"US","launch_date":"2026-02-07","launch_site_code":"AFWTR","launch_vehicle":null,"mission":null,"orbit_class":"UNKNOWN","rcs_meters":null,"size_class":null,"mass_kg":null,"dimensions":null,"purposes":["comms"],"wikipedia_slug":null,"has_3d_model":false,"image_url":null,"decayed_at":null,"tle_current":{"epoch":"2026-05-25T01:19:49.615104Z","epoch_age_seconds":70221,"freshness":"FRESH","line1":"1 67706U 26025P   26145.05543536  .00028804  00000+0  89140-3 0  9996","line2":"2 67706  97.2842 256.6376 0001048 101.5889 258.5471 15.33436264 17715","mean_motion":15.33436264,"eccentricity":0.0001048,"inclination_deg":97.2842,"raan_deg":256.6376,"arg_perigee_deg":101.5889,"mean_anomaly_deg":258.5471,"bstar":0.0008914,"rev_number":1771,"period_min":93.906739641316,"perigee_km":464.85194638495,"apogee_km":466.28638719751,"semimajor_km":6843.7061667912,"source":"CELESTRAK","updated_at":"2026-05-25T13:38:21.681365Z"}}}